Home   Weather   's-Hertogenbosch   Past weeks

Flag for Netherlands Past Weather in 's-Hertogenbosch, Netherlands — Yesterday and Last 2 Weeks

Now
52 °F

Light rain. Overcast.


Feels Like: 48 °F
Forecast: 47 / 54 °F
Wind: 10 mph from Southwest

Location: Volkel

Current Time: May 1, 2017 at 8:15:18 am

Latest Report: May 1, 2017 at 7:25 am


Visibility: N/A

Pressure: 29.74 "Hg

Humidity: 77%

Dew Point: 45 °F

Location of 's-HertogenboschLocation

Past Weather in 's-Hertogenbosch — Graph

°F

's-Hertogenbosch Temperature Yesterday

Maximum temperature yesterday: 66 °F (at 1:25 pm)
Minimum temperature yesterday: 36 °F (at 6:25 am)
Average temperature yesterday: 54 °F

High & Low Weather Summary for the Past Weeks

 TemperatureHumidityPressure
High66 °F (Apr 30, 1:25 pm)100% (Apr 20, 6:55 am)30.63 "Hg (Apr 20, 6:55 am)
Low25 °F (Apr 20, 6:55 am)26% (Apr 30, 2:55 pm)29.65 "Hg (Apr 30, 10:55 pm)
Average45 °F68%30.12 "Hg
* Reported Apr 16 6:25 am — May 1 6:55 am, 's-Hertogenbosch, Weather by CustomWeather, © 2017

Note: Actual official high and low records may vary slightly from our data, if they occured in-between our weather recording intervals... More about our weather records

Advertising

's-Hertogenbosch Weather History for the Previous 24 Hours

Scroll right to see more
 ConditionsComfort  
Time TempWeatherWind HumidityBarometerVisibility
6:55 am
Mon, May 1
52 °FOvercast.5 mph67%29.71 "HgN/A
6:25 am52 °FMostly cloudy.5 mph62%29.68 "HgN/A
5:55 am52 °FPartly cloudy.6 mph62%29.68 "HgN/A
5:25 am50 °FPassing clouds.7 mph62%29.68 "HgN/A
4:55 am50 °FPassing clouds.7 mph62%29.65 "HgN/A
4:25 am52 °FPartly cloudy.9 mph58%29.65 "HgN/A
3:55 am52 °FMostly cloudy.10 mph58%29.65 "HgN/A
3:25 am54 °FMostly cloudy.10 mph54%29.65 "HgN/A
2:55 am54 °FOvercast.10 mph54%29.65 "HgN/A
2:25 am54 °FOvercast.12 mph54%29.65 "HgN/A
1:55 am54 °FMostly cloudy.10 mph54%29.65 "HgN/A
1:25 am54 °FOvercast.9 mph54%29.65 "HgN/A
12:55 am55 °FOvercast.10 mph51%29.65 "HgN/A
12:25 am57 °FOvercast.9 mph44%29.65 "HgN/A
11:55 pm
Sun, Apr 30
57 °FOvercast.10 mph44%29.65 "HgN/A
11:25 pm55 °FPassing clouds.9 mph47%29.65 "HgN/A
10:55 pm57 °FOvercast.10 mph44%29.65 "HgN/A
10:25 pm59 °FOvercast.10 mph42%29.68 "HgN/A
9:55 pm59 °FOvercast.12 mph42%29.68 "HgN/A
9:25 pm61 °FOvercast.12 mph36%29.68 "HgN/A
8:55 pm61 °FPartly sunny.10 mph39%29.68 "HgN/A
8:25 pm63 °FScattered clouds.12 mph34%29.68 "HgN/A
7:55 pm64 °FScattered clouds.14 mph32%29.68 "HgN/A
7:25 pm64 °FMild.17 mph32%29.68 "HgN/A
6:55 pm64 °FPartly sunny.16 mph32%29.68 "HgN/A
6:25 pm66 °FHigh level clouds.18 mph28%29.68 "HgN/A
5:55 pm66 °FPassing clouds.21 mph28%29.68 "HgN/A
5:25 pm64 °FScattered clouds.20 mph28%29.71 "HgN/A
4:55 pm64 °FPassing clouds.20 mph30%29.71 "HgN/A
4:25 pm64 °FPartly sunny.20 mph30%29.71 "HgN/A
3:55 pm66 °FScattered clouds.20 mph30%29.74 "HgN/A
3:25 pm66 °FPassing clouds.21 mph30%29.74 "HgN/A
2:55 pm66 °FMild.21 mph26%29.77 "HgN/A
2:25 pm64 °FOvercast.22 mph28%29.77 "HgN/A
1:55 pm64 °FPartly sunny.16 mph32%29.80 "HgN/A
1:25 pm66 °FPassing clouds.18 mph30%29.80 "HgN/A
12:55 pm63 °FMild.21 mph32%29.80 "HgN/A
12:25 pm63 °FMild.21 mph34%29.83 "HgN/A
11:55 am61 °FScattered clouds.16 mph36%29.83 "HgN/A
11:25 am59 °FRefreshingly cool.16 mph42%29.86 "HgN/A
10:55 am57 °FRefreshingly cool.15 mph41%29.86 "HgN/A
10:25 am55 °FPassing clouds.15 mph44%29.86 "HgN/A
9:55 am54 °FPassing clouds.13 mph47%29.89 "HgN/A
9:25 am50 °FCool.15 mph50%29.89 "HgN/A
8:55 am48 °FCool.13 mph54%29.92 "HgN/A
8:25 am46 °FCool.12 mph57%29.92 "HgN/A
Weather by CustomWeather, © 2017

See weather overviewHow to use our weather pages